j
k
j a
j l
ISS 1 25544U 98067A 07311.41791212 .00026249 00000-0 16940-3 0 3090 2 25544 051.6369 085.3634 0002242 152.6061 245.2706 15.75932684513377
Show replies by date
[email protected]
Add to favorites Remove from favorites